PSLV DEB

Satellite information

Favourite Embed

Satellite Type and Status

DEBRISIN ORBIT

Key statistics

Satellite PSLV DEB at a glance.

Uptime

8604

Days in orbit

Revolutions

≈ 14.5

Per day

Orbit

SSO

Sun Synchronous Orbit

Inclination

98.6

Latest

Satellite identification and parameters

Extended collection of information and parameters for PSLV DEB.

Object identification

Identified? True

Debris? True

Object name: PSLV DEB

International designator: 2001-049QJ

Object number (NORAD): 35350

Object ID (CCSDS): 35350

Country: INDIA (IND)

Current information (Y/N): Y

RCS size: SMALL

Orbital parameters

Period: 99.01 minutes

Inclination: 98.5553 deg

SMA: 7089.454 km

Apoapsis: 758.858 km

Periapsis: 663.779 km

RAAN: 167.4654 deg

Eccentricy: 0.0067057

Argument of periapsis: 180.8095 deg

Mean anomaly: 179.3003 deg

Mean motion: 14.54399172 rev/day

Mean motion (dot): 0.00001705 rev/day2

B* drag term: 0.00040081 1/REarth

Two-line elements (TLE)

Creation date: May 11, 2025, 2:40 a.m.

Reference frame: TEME

Reference center: EARTH

Epoch: May 10, 2025, 7:53 p.m. UTC

TLE line 0: 0 PSLV DEB

TLE line 1: 1 35350U 01049QJ 25130.82891277 .00001705 00000-0 40081-3 0 9994

TLE line 2: 2 35350 98.5553 167.4654 0067057 180.8095 179.3003 14.54399172625441

Live tracking on map

Real-time ground track for satellite PSLV DEB.

In-orbit conjunctions

A list of the most updated potential collisions computed for object PSLV DEB.

Target Orbit TCA Probability of collision Miss distance Type
SL-8 R/B LEO 2024-12-17 01:01:53 0.0001689453 614.0 (m) ROCKET BODY
FUSE 1 LEO 2024-12-12 23:59:01 0.0001715494 977.0 (m) PAYLOAD

Associated space launch

Technology Experiment Satellite (TES) is Indian remote sensing and photo-reconnaissance satellite. The 1108 kg satellite carries a one-meter resolution panchromatic camera is an experimental satellite to demonstrate and validate, in orbit, technologies that could be used in the future satellites of Indian Space Research Organisation (ISRO). It was successfully placed in 572 km Sun-synchronous orbit on 22 October 2001 using the PSLV-C3. The PSLV-C3 also injected two more satellites: PROBA, a Belgian satellite and BIRD, a German satellite.

PSLV DEB was lifted into orbit during the mission ‘PSLV | TES’, on board a PSLV space rocket.

The launch took place on Oct. 22, 2001, 4:53 a.m. from Satish Dhawan Space Centre First Launch Pad.

For more information about the launch, click the button.

Launch to space PSLV | TES
PSLV | TES

Agency: N/A

Status: Launch Successful

Launch date: Oct. 22, 2001, 4:53 a.m. UTC

Rocket: PSLV

Launch pad: Satish Dhawan Space Centre First Launch Pad

Location: Satish Dhawan Space Centre, India

...

Latest news about this satellite

News about space launch
Proba-1’s T-plus 23 years in orbit

Proba-1’s T-plus 23 years in orbit


Newsletter sign-up

Weekly statistics, charts and insights to help you stay on top of the space industry.